SIA26 EDDF-KJFK

Flight info

Callsign SIA26
Flight time N/A
Altitude 36000
Route OBOKA5G/25C OBOKA Z28 DIBIR DCT BUDIP DCT GISEB DCT RAVLO Y70 OTBED L60 PENIL M144 BAGSO DCT ULTAG DCT DEVOL DCT BEXET DCT DOGAL/M084F360 DCT 55N020W 54N030W 54N040W 52N050W DCT TUDEP/N0485F360 N526A TOPPS DCT ENE DCT PARCH
Aircraft B77W/H-SDE1E2E3FGHIJ2J3J4J5M1RWXYZ/LB1D1

Departure

Time 2026-05-05 11:27
Airport Frankfurt Main Airport (EDDF)

Arrival

Time N/A
Airport John F. Kennedy International Airport (KJFK)
Time Latitude Longitude Altitude Speed Heading
2026-05-05 10:32 50.04763 8.57745 381 ft 0 kts 271°
2026-05-05 11:15 50.04763 8.57756 382 ft 2 kts 271°
2026-05-05 11:15 50.04763 8.57778 382 ft 2 kts 271°
2026-05-05 11:16 50.04763 8.57799 382 ft 2 kts 272°
2026-05-05 11:16 50.04760 8.57822 381 ft 2 kts 298°
2026-05-05 11:16 50.04751 8.57840 381 ft 2 kts 320°
2026-05-05 11:16 50.04739 8.57852 381 ft 2 kts 340°
2026-05-05 11:17 50.04726 8.57856 381 ft 2 kts
2026-05-05 11:17 50.04711 8.57853 381 ft 2 kts 21°
2026-05-05 11:17 50.04698 8.57842 380 ft 2 kts 43°
2026-05-05 11:17 50.04689 8.57825 380 ft 2 kts 63°
2026-05-05 11:18 50.04686 8.57816 380 ft 1 kts 71°
2026-05-05 11:18 50.04686 8.57813 380 ft 0 kts 70°
2026-05-05 11:20 50.04686 8.57815 380 ft 0 kts 70°
2026-05-05 11:20 50.04693 8.57841 380 ft 5 kts 68°
2026-05-05 11:20 50.04707 8.57897 381 ft 5 kts 77°
2026-05-05 11:21 50.04707 8.57940 382 ft 3 kts 112°
2026-05-05 11:21 50.04683 8.57974 382 ft 6 kts 153°
2026-05-05 11:21 50.04649 8.57994 382 ft 2 kts 160°
2026-05-05 11:22 50.04644 8.57997 382 ft 2 kts 160°
2026-05-05 11:23 50.04613 8.58015 382 ft 7 kts 160°
2026-05-05 11:23 50.04564 8.58049 382 ft 6 kts 131°
2026-05-05 11:23 50.04568 8.58122 383 ft 7 kts 69°
2026-05-05 11:23 50.04582 8.58183 384 ft 5 kts 70°
2026-05-05 11:24 50.04596 8.58243 384 ft 7 kts 69°
2026-05-05 11:24 50.04616 8.58322 384 ft 8 kts 70°
2026-05-05 11:24 50.04638 8.58415 382 ft 10 kts 70°
2026-05-05 11:24 50.04660 8.58508 379 ft 7 kts 73°
2026-05-05 11:25 50.04623 8.58570 375 ft 11 kts 156°
2026-05-05 11:25 50.04548 8.58618 372 ft 10 kts 159°
2026-05-05 11:25 50.04499 8.58619 371 ft 6 kts 231°
2026-05-05 11:25 50.04484 8.58571 373 ft 2 kts 246°
2026-05-05 11:26 50.04482 8.58565 374 ft 0 kts 249°
2026-05-05 11:26 50.04479 8.58552 374 ft 6 kts 249°
2026-05-05 11:26 50.04416 8.58294 381 ft 58 kts 250°
2026-05-05 11:27 50.04220 8.57476 371 ft 121 kts 250°
2026-05-05 11:27 50.03885 8.56086 366 ft 175 kts 249°
2026-05-05 11:27 50.03449 8.54298 825 ft 189 kts 249°
2026-05-05 11:27 50.02992 8.52483 1462 ft 201 kts 249°
2026-05-05 11:28 50.02517 8.50563 2247 ft 209 kts 250°
2026-05-05 11:28 50.02085 8.48485 3006 ft 213 kts 263°
2026-05-05 11:28 50.02168 8.46119 3093 ft 226 kts 285°
2026-05-05 11:28 50.02542 8.43732 2987 ft 237 kts 275°
2026-05-05 11:29 50.02549 8.41100 3427 ft 254 kts 263°
2026-05-05 11:29 50.02290 8.38398 4240 ft 257 kts 261°
2026-05-05 11:29 50.01981 8.35614 4859 ft 268 kts 260°
2026-05-05 11:29 50.01662 8.32836 5790 ft 265 kts 258°
2026-05-05 11:30 50.01335 8.30028 6418 ft 275 kts 261°
2026-05-05 11:30 50.01465 8.27064 7171 ft 280 kts 285°
2026-05-05 11:30 50.02197 8.24255 7872 ft 287 kts 293°
2026-05-05 11:30 50.03027 8.21526 8595 ft 291 kts 294°
2026-05-05 11:31 50.03878 8.18784 9337 ft 293 kts 294°
2026-05-05 11:31 50.04721 8.15963 10092 ft 295 kts 293°
2026-05-05 11:31 50.05572 8.13139 10527 ft 309 kts 297°
2026-05-05 11:31 50.06706 8.10397 10947 ft 326 kts 306°
2026-05-05 11:32 50.08033 8.07807 11332 ft 341 kts 308°
2026-05-05 11:32 50.09511 8.04967 11805 ft 357 kts 308°
2026-05-05 11:32 50.11082 8.01932 12295 ft 372 kts 307°
2026-05-05 11:32 50.12645 7.98898 12793 ft 385 kts 308°
2026-05-05 11:33 50.14286 7.95706 13290 ft 399 kts 308°
2026-05-05 11:33 50.15945 7.92472 13992 ft 407 kts 308°
2026-05-05 11:33 50.17666 7.89116 14864 ft 412 kts 307°
2026-05-05 11:33 50.19318 7.85889 15646 ft 417 kts 307°
2026-05-05 11:34 50.21111 7.82381 16493 ft 422 kts 307°
2026-05-05 11:34 50.22930 7.78820 17286 ft 428 kts 308°
2026-05-05 11:34 50.24942 7.75537 17992 ft 437 kts 317°
2026-05-05 11:34 50.27347 7.72751 18790 ft 443 kts 328°
2026-05-05 11:35 50.29946 7.70654 19669 ft 445 kts 335°
2026-05-05 11:35 50.32711 7.68764 20481 ft 449 kts 335°
2026-05-05 11:35 50.35529 7.66858 21149 ft 455 kts 335°
2026-05-05 11:35 50.38460 7.64866 21872 ft 460 kts 335°
2026-05-05 11:36 50.41330 7.62908 22588 ft 465 kts 335°
2026-05-05 11:36 50.44281 7.60888 23279 ft 470 kts 335°
2026-05-05 11:36 50.47292 7.58820 23997 ft 474 kts 335°
2026-05-05 11:36 50.50315 7.56740 24653 ft 480 kts 335°
2026-05-05 11:37 50.53441 7.54584 25302 ft 485 kts 335°
2026-05-05 11:37 50.56466 7.52219 25978 ft 486 kts 327°
2026-05-05 11:37 50.59331 7.49381 26660 ft 489 kts 325°
2026-05-05 11:37 50.62169 7.46478 27296 ft 493 kts 324°
2026-05-05 11:38 50.65030 7.43540 27877 ft 498 kts 324°
2026-05-05 11:38 50.67918 7.40571 28462 ft 502 kts 324°
2026-05-05 11:38 50.70844 7.37557 29047 ft 506 kts 323°
2026-05-05 11:38 50.73607 7.34171 29625 ft 505 kts 314°
2026-05-05 11:39 50.75942 7.30293 30231 ft 503 kts 305°
2026-05-05 11:39 50.77998 7.25931 31089 ft 497 kts 301°
2026-05-05 11:39 50.79978 7.21522 32076 ft 491 kts 301°
2026-05-05 11:39 50.81934 7.17143 32989 ft 485 kts 300°
2026-05-05 11:40 50.83759 7.13047 33672 ft 482 kts 300°
2026-05-05 11:40 50.85629 7.08839 34189 ft 482 kts 300°
2026-05-05 11:40 50.87511 7.04597 34698 ft 481 kts 299°
2026-05-05 11:40 50.89427 7.00276 35229 ft 478 kts 299°
2026-05-05 11:41 50.91311 6.96020 35649 ft 475 kts 300°
2026-05-05 11:41 50.93205 6.91735 35838 ft 478 kts 300°
2026-05-05 11:41 50.95094 6.87453 35871 ft 478 kts 300°
2026-05-05 11:42 50.98864 6.78893 35874 ft 475 kts 300°
2026-05-05 11:42 51.02656 6.70250 35875 ft 478 kts 300°
2026-05-05 11:43 51.06426 6.61633 35876 ft 477 kts 300°
2026-05-05 11:43 51.10212 6.52949 35876 ft 476 kts 300°
2026-05-05 11:44 51.13955 6.44328 35869 ft 477 kts 300°
2026-05-05 11:44 51.17733 6.35600 35879 ft 476 kts 300°
2026-05-05 11:45 51.21438 6.27013 35880 ft 474 kts 299°
2026-05-05 11:45 51.25159 6.18358 35887 ft 475 kts 299°
2026-05-05 11:46 51.28856 6.09687 35893 ft 474 kts 298°
2026-05-05 11:46 51.32450 6.00899 35893 ft 472 kts 298°
2026-05-05 11:47 51.36035 5.92097 35896 ft 474 kts 298°
2026-05-05 11:47 51.40116 5.83757 35903 ft 481 kts 309°
2026-05-05 11:48 51.47063 5.72174 35902 ft 480 kts 309°
2026-05-05 11:48 51.51646 5.64508 35903 ft 479 kts 309°
2026-05-05 11:49 51.56152 5.56942 35909 ft 481 kts 309°
2026-05-05 11:49 51.60725 5.49238 35909 ft 478 kts 309°
2026-05-05 11:50 51.65289 5.41522 35901 ft 479 kts 309°
2026-05-05 11:50 51.69840 5.33805 35901 ft 479 kts 308°
2026-05-05 11:51 51.74297 5.26225 35902 ft 477 kts 308°
2026-05-05 11:51 51.78651 5.18793 35901 ft 478 kts 308°
2026-05-05 11:52 51.83047 5.11270 35898 ft 476 kts 308°
2026-05-05 11:52 51.87358 5.03867 35894 ft 478 kts 308°
2026-05-05 11:53 51.91717 4.96344 35896 ft 477 kts 308°
2026-05-05 11:53 51.96109 4.88638 35884 ft 475 kts 308°
2026-05-05 11:54 52.00519 4.80873 35908 ft 477 kts 308°
2026-05-05 11:54 52.04985 4.72991 35911 ft 477 kts 308°
2026-05-05 11:55 52.09393 4.65188 35915 ft 477 kts 308°
2026-05-05 11:55 52.13855 4.57266 35916 ft 477 kts 308°
2026-05-05 11:56 52.18326 4.49303 35920 ft 476 kts 308°
2026-05-05 11:56 52.22776 4.41350 35925 ft 476 kts 308°
2026-05-05 11:57 52.27239 4.33350 35924 ft 477 kts 308°
2026-05-05 11:57 52.31689 4.25348 35938 ft 475 kts 308°
2026-05-05 11:58 52.36082 4.17421 35950 ft 477 kts 308°
2026-05-05 11:58 52.40523 4.09383 35949 ft 477 kts 308°
2026-05-05 11:59 52.44984 4.01282 35947 ft 477 kts 308°
2026-05-05 11:59 52.49405 3.93229 35951 ft 477 kts 308°
2026-05-05 12:00 52.53854 3.85098 35951 ft 477 kts 308°
2026-05-05 12:00 52.58282 3.76980 35956 ft 475 kts 308°
2026-05-05 12:01 52.62674 3.68899 35959 ft 477 kts 308°
2026-05-05 12:01 52.67058 3.60808 35957 ft 475 kts 308°
2026-05-05 12:02 52.71269 3.53011 35962 ft 476 kts 308°
2026-05-05 12:02 52.75565 3.45031 35966 ft 476 kts 308°
2026-05-05 12:03 52.79809 3.37122 35965 ft 475 kts 308°
2026-05-05 12:03 52.84153 3.29001 35978 ft 474 kts 308°
2026-05-05 12:04 52.88470 3.20827 35977 ft 473 kts 304°
2026-05-05 12:04 52.91718 3.11459 35980 ft 465 kts 288°
2026-05-05 12:05 52.93384 3.01359 35988 ft 463 kts 280°
2026-05-05 12:05 52.94750 2.91342 35987 ft 463 kts 280°
2026-05-05 12:06 52.96049 2.81260 35981 ft 464 kts 279°
2026-05-05 12:06 52.97311 2.70982 35975 ft 465 kts 279°
2026-05-05 12:07 52.98571 2.60642 35977 ft 467 kts 279°
2026-05-05 12:07 52.99815 2.50357 35980 ft 466 kts 279°
2026-05-05 12:08 53.01080 2.39814 35981 ft 467 kts 279°
2026-05-05 12:08 53.02303 2.29536 35985 ft 467 kts 279°
2026-05-05 12:09 53.03498 2.19419 35986 ft 467 kts 279°
2026-05-05 12:09 53.04705 2.09121 35986 ft 468 kts 279°
2026-05-05 12:10 53.05941 1.98483 35996 ft 468 kts 279°
2026-05-05 12:10 53.07168 1.87839 35992 ft 468 kts 279°
2026-05-05 12:11 53.08323 1.77737 35991 ft 470 kts 279°
2026-05-05 12:11 53.09495 1.67404 35994 ft 470 kts 279°
2026-05-05 12:12 53.10689 1.56795 35991 ft 470 kts 279°
2026-05-05 12:12 53.11865 1.46253 35993 ft 470 kts 279°
2026-05-05 12:13 53.13038 1.35653 35988 ft 470 kts 279°
2026-05-05 12:13 53.14195 1.25098 35995 ft 469 kts 278°
2026-05-05 12:14 53.15356 1.14420 35988 ft 470 kts 278°
2026-05-05 12:14 53.16508 1.03723 35988 ft 472 kts 278°
2026-05-05 12:15 53.17658 0.92960 35991 ft 471 kts 279°
2026-05-05 12:15 53.18802 0.82160 35998 ft 472 kts 279°
2026-05-05 12:16 53.19935 0.71350 35987 ft 472 kts 279°
2026-05-05 12:16 53.21061 0.60513 35986 ft 473 kts 279°
2026-05-05 12:17 53.22180 0.49648 35983 ft 473 kts 279°
2026-05-05 12:17 53.23287 0.38795 35986 ft 473 kts 279°
2026-05-05 12:18 53.24383 0.27942 35983 ft 475 kts 278°
2026-05-05 12:18 53.25475 0.17032 35982 ft 475 kts 278°
2026-05-05 12:19 53.26561 0.06084 35979 ft 475 kts 278°
2026-05-05 12:19 53.27633 -0.04841 35984 ft 474 kts 278°
2026-05-05 12:20 53.28690 -0.15715 35984 ft 474 kts 278°
2026-05-05 12:20 53.29740 -0.26624 35996 ft 475 kts 278°
2026-05-05 12:21 53.30779 -0.37536 35996 ft 476 kts 278°
2026-05-05 12:21 53.31817 -0.48539 35997 ft 478 kts 278°
2026-05-05 12:22 53.32839 -0.59488 35990 ft 477 kts 278°
2026-05-05 12:22 53.33859 -0.70534 36000 ft 479 kts 278°
2026-05-05 12:23 53.34867 -0.81556 35997 ft 478 kts 278°
2026-05-05 12:23 53.35870 -0.92642 36000 ft 482 kts 278°
2026-05-05 12:24 53.36859 -1.03699 36000 ft 482 kts 278°
2026-05-05 12:24 53.37845 -1.14842 35981 ft 483 kts 278°
2026-05-05 12:25 53.38820 -1.25973 35997 ft 482 kts 278°
2026-05-05 12:25 53.39780 -1.37056 36003 ft 482 kts 278°
2026-05-05 12:26 53.40736 -1.48230 35997 ft 482 kts 278°
2026-05-05 12:26 53.41679 -1.59371 35994 ft 482 kts 278°
2026-05-05 12:27 53.42617 -1.70579 35990 ft 482 kts 277°
2026-05-05 12:27 53.43543 -1.81779 35998 ft 483 kts 277°
2026-05-05 12:28 53.44456 -1.92951 35999 ft 481 kts 277°
2026-05-05 12:28 53.45355 -2.04078 36007 ft 483 kts 277°
2026-05-05 12:29 53.46245 -2.15240 36015 ft 480 kts 278°
2026-05-05 12:29 53.47116 -2.26285 36016 ft 477 kts 278°
2026-05-05 12:30 53.47976 -2.37329 36024 ft 476 kts 277°
2026-05-05 12:30 53.48829 -2.48415 36028 ft 484 kts 277°
2026-05-05 12:31 53.49684 -2.59665 36029 ft 480 kts 278°
2026-05-05 12:31 53.50489 -2.70395 36033 ft 482 kts 276°
2026-05-05 12:32 53.51305 -2.81404 36034 ft 478 kts 277°
2026-05-05 12:32 53.52108 -2.92388 36036 ft 469 kts 277°
2026-05-05 12:33 53.52902 -3.03380 36040 ft 471 kts 277°
2026-05-05 12:33 53.53683 -3.14343 36040 ft 471 kts 277°
2026-05-05 12:34 53.54452 -3.25282 36040 ft 467 kts 277°
2026-05-05 12:34 53.55203 -3.36094 36041 ft 468 kts 277°
2026-05-05 12:35 53.55949 -3.46998 36040 ft 467 kts 276°
2026-05-05 12:35 53.56683 -3.57871 36038 ft 467 kts 276°
2026-05-05 12:36 53.57410 -3.68773 36038 ft 468 kts 276°
2026-05-05 12:36 53.58122 -3.79619 36042 ft 467 kts 276°
2026-05-05 12:37 53.58823 -3.90447 36044 ft 467 kts 276°
2026-05-05 12:37 53.59517 -4.01321 36046 ft 467 kts 276°
2026-05-05 12:38 53.60200 -4.12192 36046 ft 467 kts 276°
2026-05-05 12:38 53.60875 -4.23072 36053 ft 466 kts 275°
2026-05-05 12:39 53.61539 -4.33947 36043 ft 465 kts 276°
2026-05-05 12:39 53.62188 -4.44740 36054 ft 466 kts 276°
2026-05-05 12:40 53.62832 -4.55625 36057 ft 464 kts 276°
2026-05-05 12:40 53.63459 -4.66385 36060 ft 463 kts 275°
2026-05-05 12:41 53.64080 -4.77202 36058 ft 465 kts 275°
2026-05-05 12:41 53.64691 -4.88039 36061 ft 464 kts 275°
2026-05-05 12:42 53.65293 -4.98880 36070 ft 464 kts 275°
2026-05-05 12:42 53.65886 -5.09733 36074 ft 463 kts 275°
2026-05-05 12:43 53.66436 -5.19974 36071 ft 463 kts 275°
2026-05-05 12:43 53.66996 -5.30561 36073 ft 463 kts 275°
2026-05-05 12:44 53.67551 -5.41252 36071 ft 463 kts 275°
2026-05-05 12:44 53.68010 -5.52129 36072 ft 462 kts 272°
2026-05-05 12:45 53.68256 -5.63041 36071 ft 464 kts 272°
2026-05-05 12:45 53.68481 -5.73847 36073 ft 464 kts 271°
2026-05-05 12:46 53.68693 -5.84785 36072 ft 463 kts 271°
2026-05-05 12:46 53.68895 -5.95721 36073 ft 464 kts 271°
2026-05-05 12:47 53.69082 -6.06527 36075 ft 464 kts 271°
2026-05-05 12:47 53.69261 -6.17407 36075 ft 464 kts 272°
2026-05-05 12:48 53.69430 -6.28292 36073 ft 464 kts 272°
2026-05-05 12:48 53.69587 -6.39098 36072 ft 465 kts 272°
2026-05-05 12:49 53.69736 -6.49940 36070 ft 464 kts 272°
2026-05-05 12:49 53.69875 -6.60838 36069 ft 464 kts 272°
2026-05-05 12:50 53.70004 -6.71714 36070 ft 464 kts 271°
2026-05-05 12:50 53.70466 -6.82545 36072 ft 463 kts 277°
2026-05-05 12:51 53.71252 -6.93445 36070 ft 464 kts 277°
2026-05-05 12:51 53.71989 -7.04234 36070 ft 466 kts 276°
2026-05-05 12:52 53.72687 -7.14847 36068 ft 464 kts 276°
2026-05-05 12:52 53.73378 -7.25633 36064 ft 464 kts 276°
2026-05-05 12:53 53.74048 -7.36313 36068 ft 464 kts 276°
2026-05-05 12:53 53.74699 -7.46903 36072 ft 464 kts 276°
2026-05-05 12:54 53.75670 -7.63011 36078 ft 464 kts 276°
2026-05-05 12:55 53.76265 -7.73086 36077 ft 464 kts 276°
2026-05-05 12:55 53.76855 -7.83208 36076 ft 464 kts 276°
2026-05-05 12:56 53.77470 -7.93939 36077 ft 464 kts 276°
2026-05-05 12:56 53.78080 -8.04757 36078 ft 464 kts 276°
2026-05-05 12:57 53.78684 -8.15652 36079 ft 464 kts 276°
2026-05-05 12:57 53.79277 -8.26515 36079 ft 464 kts 276°
2026-05-05 12:58 53.79861 -8.37401 36083 ft 464 kts 276°
2026-05-05 12:58 53.80437 -8.48332 36086 ft 463 kts 276°
2026-05-05 12:59 53.80998 -8.59158 36087 ft 463 kts 276°
2026-05-05 12:59 53.81555 -8.70113 36090 ft 463 kts 275°
2026-05-05 13:00 53.82365 -8.86401 36092 ft 463 kts 275°
2026-05-05 13:01 53.83411 -9.08147 36095 ft 462 kts 275°
2026-05-05 13:01 53.83920 -9.19027 36098 ft 462 kts 275°
2026-05-05 13:02 53.84418 -9.29890 36100 ft 462 kts 275°
2026-05-05 13:02 53.84901 -9.40655 36100 ft 462 kts 275°
2026-05-05 13:03 53.85379 -9.51521 36095 ft 462 kts 275°
2026-05-05 13:03 53.85849 -9.62410 36105 ft 463 kts 275°
2026-05-05 13:04 53.86306 -9.73259 36104 ft 462 kts 274°
2026-05-05 13:04 53.86756 -9.84148 36116 ft 462 kts 274°
2026-05-05 13:05 53.87189 -9.94871 36119 ft 462 kts 274°
2026-05-05 13:05 53.87616 -10.05698 36131 ft 462 kts 274°
2026-05-05 13:06 53.88033 -10.16524 36127 ft 462 kts 274°
2026-05-05 13:06 53.88438 -10.27285 36140 ft 461 kts 274°
2026-05-05 13:07 53.88837 -10.38127 36130 ft 461 kts 274°
2026-05-05 13:07 53.89254 -10.48868 36139 ft 461 kts 275°
2026-05-05 13:08 53.89744 -10.59598 36139 ft 460 kts 275°
2026-05-05 13:08 53.90224 -10.70416 36132 ft 460 kts 275°
2026-05-05 13:09 53.90686 -10.81091 36140 ft 460 kts 275°
2026-05-05 13:09 53.91139 -10.91830 36137 ft 460 kts 275°
2026-05-05 13:10 53.91579 -11.02496 36139 ft 459 kts 275°
2026-05-05 13:10 53.92010 -11.13190 36139 ft 459 kts 275°
2026-05-05 13:11 53.92429 -11.23794 36136 ft 459 kts 275°
2026-05-05 13:11 53.92838 -11.34412 36139 ft 459 kts 275°
2026-05-05 13:12 53.93238 -11.45051 36143 ft 458 kts 275°
2026-05-05 13:12 53.93629 -11.55714 36144 ft 459 kts 275°
2026-05-05 13:13 53.94009 -11.66322 36146 ft 458 kts 274°
2026-05-05 13:13 53.94377 -11.76846 36150 ft 459 kts 274°
2026-05-05 13:14 53.94736 -11.87398 36153 ft 459 kts 274°
2026-05-05 13:14 53.95086 -11.97925 36154 ft 459 kts 274°
2026-05-05 13:15 53.95419 -12.08238 36154 ft 458 kts 274°
2026-05-05 13:15 53.95750 -12.18765 36154 ft 458 kts 274°
2026-05-05 13:16 53.96068 -12.29156 36154 ft 457 kts 274°
2026-05-05 13:16 53.96377 -12.39576 36158 ft 459 kts 274°
2026-05-05 13:17 53.96679 -12.50041 36163 ft 458 kts 274°
2026-05-05 13:17 53.96972 -12.60505 36158 ft 458 kts 274°
2026-05-05 13:18 53.97252 -12.70883 36161 ft 457 kts 273°
2026-05-05 13:18 53.97525 -12.81294 36167 ft 458 kts 273°
2026-05-05 13:19 53.97789 -12.91681 36173 ft 457 kts 273°
2026-05-05 13:19 53.98042 -13.02003 36176 ft 457 kts 273°
2026-05-05 13:20 53.98285 -13.12308 36175 ft 458 kts 273°
2026-05-05 13:20 53.98519 -13.22606 36176 ft 457 kts 273°
2026-05-05 13:21 53.98747 -13.32993 36175 ft 457 kts 273°
2026-05-05 13:21 53.98970 -13.43581 36175 ft 458 kts 273°
2026-05-05 13:22 53.99183 -13.54168 36174 ft 458 kts 273°
2026-05-05 13:22 53.99388 -13.64759 36174 ft 458 kts 273°
2026-05-05 13:23 53.99582 -13.75316 36172 ft 458 kts 272°
2026-05-05 13:23 53.99767 -13.85891 36175 ft 458 kts 272°
2026-05-05 13:24 53.99943 -13.96490 36176 ft 457 kts 272°
2026-05-05 13:24 54.00051 -14.07099 36175 ft 457 kts 271°
2026-05-05 13:25 54.00073 -14.17741 36181 ft 456 kts 271°
2026-05-05 13:25 54.00091 -14.28419 36182 ft 457 kts 271°
2026-05-05 13:26 54.00102 -14.39015 36175 ft 457 kts 271°
2026-05-05 13:26 54.00105 -14.49635 36183 ft 457 kts 271°
2026-05-05 13:27 54.00100 -14.60241 36179 ft 457 kts 271°
2026-05-05 13:27 54.00086 -14.70850 36177 ft 457 kts 270°
2026-05-05 13:28 54.00063 -14.81385 36181 ft 458 kts 270°
2026-05-05 13:28 54.00030 -14.92046 36189 ft 458 kts 270°
2026-05-05 13:29 54.00639 -15.02324 36186 ft 457 kts 284°
2026-05-05 13:29 54.02729 -15.12339 36194 ft 459 kts 290°
2026-05-05 13:30 54.04990 -15.22322 36194 ft 460 kts 290°
2026-05-05 13:30 54.06130 -15.27395 36558 ft 459 kts 290°
2026-05-05 13:30 54.07238 -15.32343 36366 ft 460 kts 290°
2026-05-05 13:31 54.08351 -15.37335 36226 ft 455 kts 290°
2026-05-05 13:31 54.09452 -15.42283 36202 ft 452 kts 290°
2026-05-05 13:31 54.11652 -15.52227 36193 ft 458 kts 290°
2026-05-05 13:32 54.13855 -15.62243 36195 ft 456 kts 290°
2026-05-05 13:32 54.16043 -15.72238 36198 ft 457 kts 289°
2026-05-05 13:33 54.18220 -15.82233 36199 ft 456 kts 289°
2026-05-05 13:33 54.20385 -15.92223 36198 ft 457 kts 289°
2026-05-05 13:34 54.22551 -16.02269 36199 ft 456 kts 289°
2026-05-05 13:34 54.24718 -16.12367 36193 ft 458 kts 289°
2026-05-05 13:35 54.26865 -16.22425 36193 ft 458 kts 289°
2026-05-05 13:35 54.29022 -16.32578 36195 ft 457 kts 289°
2026-05-05 13:36 54.31151 -16.42649 36190 ft 458 kts 289°
2026-05-05 13:36 54.33196 -16.52372 36194 ft 458 kts 289°
2026-05-05 13:37 54.35218 -16.62034 36197 ft 458 kts 289°
2026-05-05 13:37 54.37241 -16.71740 36207 ft 459 kts 289°
2026-05-05 13:38 54.39240 -16.81382 36213 ft 458 kts 289°
2026-05-05 13:38 54.41180 -16.90786 36216 ft 459 kts 289°
2026-05-05 13:39 54.43230 -17.00767 36216 ft 460 kts 289°
2026-05-05 13:39 54.45263 -17.10715 36208 ft 460 kts 289°
2026-05-05 13:40 54.47371 -17.21084 36212 ft 459 kts 289°
2026-05-05 13:40 54.49363 -17.30937 36216 ft 460 kts 289°
2026-05-05 13:41 54.51434 -17.41229 36218 ft 461 kts 289°
2026-05-05 13:41 54.53496 -17.51532 36215 ft 461 kts 289°
2026-05-05 13:42 54.55558 -17.61889 36219 ft 461 kts 289°
2026-05-05 13:42 54.57584 -17.72118 36221 ft 461 kts 288°
2026-05-05 13:43 54.59582 -17.82260 36217 ft 461 kts 288°
2026-05-05 13:43 54.61573 -17.92415 36219 ft 462 kts 288°
2026-05-05 13:44 54.63555 -18.02583 36214 ft 463 kts 289°
2026-05-05 13:44 54.65557 -18.12906 36212 ft 463 kts 289°
2026-05-05 13:45 54.67545 -18.23211 36209 ft 463 kts 289°
2026-05-05 13:45 54.69529 -18.33553 36213 ft 463 kts 289°
2026-05-05 13:46 54.71490 -18.43833 36206 ft 463 kts 289°
2026-05-05 13:46 54.73462 -18.54222 36219 ft 464 kts 289°
2026-05-05 13:47 54.75429 -18.64645 36200 ft 464 kts 289°
2026-05-05 13:47 54.77397 -18.75128 36210 ft 465 kts 288°
2026-05-05 13:48 54.79339 -18.85535 36211 ft 465 kts 288°
2026-05-05 13:48 54.81286 -18.96021 36232 ft 465 kts 289°
2026-05-05 13:49 54.83250 -19.06662 36227 ft 465 kts 289°
2026-05-05 13:49 54.85184 -19.17199 36240 ft 465 kts 289°
2026-05-05 13:50 54.86987 -19.27080 36231 ft 465 kts 289°
2026-05-05 13:50 54.88833 -19.37247 36228 ft 464 kts 289°
2026-05-05 13:51 54.90678 -19.47472 36237 ft 465 kts 289°
2026-05-05 13:51 54.92492 -19.57576 36231 ft 465 kts 289°
2026-05-05 13:52 54.94302 -19.67712 36237 ft 466 kts 288°
2026-05-05 13:52 54.96080 -19.77727 36242 ft 465 kts 288°
2026-05-05 13:53 54.97853 -19.87765 36241 ft 465 kts 288°
2026-05-05 13:53 54.99323 -19.98015 36232 ft 466 kts 278°
2026-05-05 13:54 54.99293 -20.08625 36235 ft 469 kts 267°
2026-05-05 13:54 54.98770 -20.19316 36222 ft 469 kts 267°
2026-05-05 13:55 54.98199 -20.29855 36229 ft 470 kts 266°
2026-05-05 13:55 54.97588 -20.40527 36231 ft 470 kts 266°
2026-05-05 13:56 54.96952 -20.51245 36226 ft 471 kts 266°
2026-05-05 13:56 54.96305 -20.61867 36225 ft 471 kts 266°
2026-05-05 13:57 54.95649 -20.72410 36225 ft 471 kts 266°
2026-05-05 13:57 54.94982 -20.82969 36224 ft 471 kts 265°
2026-05-05 13:58 54.94304 -20.93519 36212 ft 471 kts 266°
2026-05-05 13:58 54.93617 -21.04066 36218 ft 471 kts 266°
2026-05-05 13:59 54.92569 -21.19863 36229 ft 471 kts 266°
2026-05-05 14:00 54.91583 -21.34439 36243 ft 472 kts 266°
2026-05-05 14:00 54.90729 -21.46853 36239 ft 472 kts 266°
2026-05-05 14:01 54.89973 -21.57687 36238 ft 472 kts 266°
2026-05-05 14:01 54.89207 -21.68531 36240 ft 473 kts 265°
2026-05-05 14:02 54.88433 -21.79340 36241 ft 473 kts 265°
2026-05-05 14:02 54.87649 -21.90143 36239 ft 474 kts 265°
2026-05-05 14:03 54.86847 -22.01070 36238 ft 475 kts 265°
2026-05-05 14:03 54.86033 -22.12021 36241 ft 474 kts 266°
2026-05-05 14:04 54.85210 -22.22946 36244 ft 473 kts 265°
2026-05-05 14:04 54.84381 -22.33822 36236 ft 473 kts 266°
2026-05-05 14:05 54.83540 -22.44729 36242 ft 474 kts 266°
2026-05-05 14:05 54.82679 -22.55758 36244 ft 474 kts 266°
2026-05-05 14:06 54.81809 -22.66764 36251 ft 475 kts 265°
2026-05-05 14:06 54.80928 -22.77771 36255 ft 475 kts 265°
2026-05-05 14:07 54.80042 -22.88738 36248 ft 475 kts 265°
2026-05-05 14:07 54.79154 -22.99583 36257 ft 475 kts 265°
2026-05-05 14:08 54.78256 -23.10436 36261 ft 477 kts 265°
2026-05-05 14:08 54.77355 -23.21200 36259 ft 477 kts 265°
2026-05-05 14:09 54.76446 -23.31940 36261 ft 475 kts 265°
2026-05-05 14:09 54.75521 -23.42756 36258 ft 475 kts 265°
2026-05-05 14:10 54.74601 -23.53397 36262 ft 476 kts 265°
2026-05-05 14:10 54.73656 -23.64210 36262 ft 476 kts 265°
2026-05-05 14:11 54.72707 -23.74967 36255 ft 477 kts 265°
2026-05-05 14:11 54.71747 -23.85726 36263 ft 478 kts 265°
2026-05-05 14:12 54.70776 -23.96494 36261 ft 478 kts 264°
2026-05-05 14:12 54.69772 -24.07519 36262 ft 479 kts 265°
2026-05-05 14:13 54.68780 -24.18292 36252 ft 478 kts 265°
2026-05-05 14:13 54.67775 -24.29101 36262 ft 478 kts 265°
2026-05-05 14:14 54.66764 -24.39866 36258 ft 478 kts 265°
2026-05-05 14:14 54.65738 -24.50684 36268 ft 479 kts 265°
2026-05-05 14:15 54.64692 -24.61598 36260 ft 478 kts 265°
2026-05-05 14:15 54.63640 -24.72483 36263 ft 481 kts 264°
2026-05-05 14:16 54.62581 -24.83321 36262 ft 480 kts 264°
2026-05-05 14:16 54.61503 -24.94252 36260 ft 480 kts 264°
2026-05-05 14:17 54.60408 -25.05238 36265 ft 480 kts 264°
2026-05-05 14:17 54.59301 -25.16254 36270 ft 480 kts 264°
2026-05-05 14:18 54.58162 -25.27473 36281 ft 480 kts 264°
2026-05-05 14:18 54.57047 -25.38350 36277 ft 479 kts 264°
2026-05-05 14:19 54.55903 -25.49413 36279 ft 481 kts 265°
2026-05-05 14:19 54.54769 -25.60272 36287 ft 481 kts 265°
2026-05-05 14:20 54.53616 -25.71214 36282 ft 481 kts 264°
2026-05-05 14:20 54.52446 -25.82214 36280 ft 481 kts 264°
2026-05-05 14:21 54.51268 -25.93196 36286 ft 482 kts 264°
2026-05-05 14:21 54.50092 -26.04060 35990 ft 480 kts 264°
2026-05-05 14:22 54.49494 -26.09544 36211 ft 480 kts 264°
2026-05-05 14:22 54.48890 -26.15065 36294 ft 485 kts 264°
2026-05-05 14:22 54.47669 -26.26145 36284 ft 482 kts 264°
2026-05-05 14:23 54.46451 -26.37098 36305 ft 484 kts 264°
2026-05-05 14:23 54.45203 -26.48225 36292 ft 482 kts 264°
2026-05-05 14:24 54.43951 -26.59289 36306 ft 483 kts 264°
2026-05-05 14:24 54.42691 -26.70334 36304 ft 484 kts 263°
2026-05-05 14:25 54.41426 -26.81317 36303 ft 483 kts 263°
2026-05-05 14:25 54.40142 -26.92380 36300 ft 483 kts 263°
2026-05-05 14:26 54.38850 -27.03416 36298 ft 483 kts 263°
2026-05-05 14:26 54.37540 -27.14508 36292 ft 482 kts 264°
2026-05-05 14:27 54.36221 -27.25585 36305 ft 482 kts 264°
2026-05-05 14:27 54.34894 -27.36644 36318 ft 481 kts 263°
2026-05-05 14:28 54.33551 -27.47731 36305 ft 479 kts 264°
2026-05-05 14:28 54.32209 -27.58739 36310 ft 481 kts 264°
2026-05-05 14:29 54.30841 -27.69859 36300 ft 482 kts 263°
2026-05-05 14:29 54.29458 -27.81003 36312 ft 480 kts 263°
2026-05-05 14:30 54.28104 -27.91830 36307 ft 480 kts 263°
2026-05-05 14:30 54.26778 -28.02358 36310 ft 479 kts 263°
2026-05-05 14:31 54.25394 -28.13258 36306 ft 477 kts 263°
2026-05-05 14:31 54.24015 -28.24038 36316 ft 478 kts 263°
2026-05-05 14:32 54.22623 -28.34837 36306 ft 477 kts 262°
2026-05-05 14:32 54.21222 -28.45620 36308 ft 478 kts 263°
2026-05-05 14:33 54.19802 -28.56468 36313 ft 477 kts 262°
2026-05-05 14:33 54.18375 -28.67290 36309 ft 477 kts 262°
2026-05-05 14:34 54.16962 -28.77927 36303 ft 477 kts 262°
2026-05-05 14:34 54.15519 -28.88713 36312 ft 476 kts 261°
2026-05-05 14:35 54.14073 -28.99432 36310 ft 476 kts 261°
2026-05-05 14:35 54.12608 -29.10224 36303 ft 475 kts 261°
2026-05-05 14:36 54.11131 -29.21019 36303 ft 474 kts 261°
2026-05-05 14:36 54.09659 -29.31704 36306 ft 474 kts 261°
2026-05-05 14:37 54.08165 -29.42471 36306 ft 474 kts 261°
2026-05-05 14:37 54.06654 -29.53282 36309 ft 474 kts 261°
2026-05-05 14:38 54.05153 -29.63944 36312 ft 474 kts 261°
2026-05-05 14:38 54.03649 -29.74555 36308 ft 473 kts 260°
2026-05-05 14:39 54.02132 -29.85184 36318 ft 473 kts 260°
2026-05-05 14:39 54.00686 -29.95247 36313 ft 473 kts 260°
2026-05-05 14:40 53.99815 -30.05953 36300 ft 464 kts 275°
2026-05-05 14:40 54.00365 -30.16624 36300 ft 463 kts 279°
2026-05-05 14:41 54.00945 -30.27408 36296 ft 463 kts 278°
2026-05-05 14:41 54.01446 -30.38259 36295 ft 464 kts 277°
2026-05-05 14:42 54.01895 -30.49028 36290 ft 464 kts 277°
2026-05-05 14:42 54.02317 -30.59856 36281 ft 464 kts 277°
2026-05-05 14:43 54.02716 -30.70579 36274 ft 464 kts 276°
2026-05-05 14:43 54.03101 -30.81351 36275 ft 465 kts 276°
2026-05-05 14:44 54.03461 -30.91733 36282 ft 466 kts 275°
2026-05-05 14:44 54.03807 -31.02022 36282 ft 466 kts 275°
2026-05-05 14:45 54.04149 -31.12457 36281 ft 466 kts 275°
2026-05-05 14:45 54.04486 -31.23080 36275 ft 466 kts 275°
2026-05-05 14:46 54.04810 -31.33570 36277 ft 467 kts 275°
2026-05-05 14:46 54.05136 -31.44421 36276 ft 467 kts 275°
2026-05-05 14:47 54.05452 -31.55270 36272 ft 469 kts 275°
2026-05-05 14:47 54.05752 -31.65928 36269 ft 468 kts 274°
2026-05-05 14:48 54.06044 -31.76630 36269 ft 469 kts 274°
2026-05-05 14:48 54.06330 -31.87452 36267 ft 469 kts 274°
2026-05-05 14:49 54.06604 -31.98203 36262 ft 470 kts 273°
2026-05-05 14:49 54.06868 -32.08925 36261 ft 470 kts 273°
2026-05-05 14:50 54.07122 -32.19678 36259 ft 470 kts 273°
2026-05-05 14:50 54.07369 -32.30470 36256 ft 471 kts 273°
2026-05-05 14:51 54.07602 -32.41102 36253 ft 472 kts 273°
2026-05-05 14:51 54.07832 -32.52036 36250 ft 479 kts 272°
2026-05-05 14:52 54.08044 -32.62555 36249 ft 478 kts 272°
2026-05-05 14:52 54.08254 -32.73475 36245 ft 477 kts 271°
2026-05-05 14:53 54.08452 -32.84283 36239 ft 478 kts 271°
2026-05-05 14:53 54.08637 -32.94905 36225 ft 477 kts 271°
2026-05-05 14:54 54.08812 -33.05453 36218 ft 477 kts 271°
2026-05-05 14:54 54.08978 -33.15984 36215 ft 478 kts 271°
2026-05-05 14:55 54.09136 -33.26707 36219 ft 478 kts 271°
2026-05-05 14:55 54.09282 -33.37152 36225 ft 479 kts 270°
2026-05-05 14:56 54.09428 -33.48333 36216 ft 480 kts 270°
2026-05-05 14:56 54.09565 -33.59684 36213 ft 481 kts 270°
2026-05-05 14:57 54.09692 -33.71046 36210 ft 481 kts 269°
2026-05-05 14:57 54.09809 -33.82483 36200 ft 483 kts 269°
2026-05-05 14:58 54.09914 -33.93859 36202 ft 483 kts 269°
2026-05-05 14:58 54.10009 -34.05156 36196 ft 483 kts 269°
2026-05-05 14:59 54.10092 -34.16482 36192 ft 483 kts 269°
2026-05-05 14:59 54.10166 -34.27860 36193 ft 483 kts 269°
2026-05-05 15:00 54.10219 -34.37475 36194 ft 485 kts 268°
2026-05-05 15:00 54.10281 -34.50900 36188 ft 487 kts 268°
2026-05-05 15:01 54.10322 -34.62294 36183 ft 488 kts 268°
2026-05-05 15:01 54.10352 -34.73466 36180 ft 488 kts 267°
2026-05-05 15:02 54.10371 -34.84584 36176 ft 487 kts 267°
2026-05-05 15:02 54.10381 -34.96096 36176 ft 487 kts 267°
2026-05-05 15:03 54.10379 -35.07574 36171 ft 488 kts 266°
2026-05-05 15:03 54.10366 -35.18974 36161 ft 489 kts 266°
2026-05-05 15:04 54.10344 -35.29887 36170 ft 489 kts 266°
2026-05-05 15:04 54.10310 -35.41442 36153 ft 490 kts 266°
2026-05-05 15:05 54.10238 -35.58728 36153 ft 491 kts 266°
2026-05-05 15:06 54.10177 -35.70161 36141 ft 492 kts 265°
2026-05-05 15:06 54.10104 -35.81702 36140 ft 491 kts 265°
2026-05-05 15:07 54.10019 -35.93399 36132 ft 495 kts 265°
2026-05-05 15:07 54.09924 -36.05032 36127 ft 495 kts 265°
2026-05-05 15:08 54.09816 -36.16765 36114 ft 494 kts 265°
2026-05-05 15:08 54.09697 -36.28455 36110 ft 497 kts 265°
2026-05-05 15:09 54.09566 -36.40208 36104 ft 496 kts 265°
2026-05-05 15:09 54.09426 -36.51738 36096 ft 498 kts 265°
2026-05-05 15:10 54.09275 -36.63391 36100 ft 496 kts 265°
2026-05-05 15:10 54.09111 -36.75083 36089 ft 496 kts 264°
2026-05-05 15:11 54.08933 -36.86889 36081 ft 498 kts 264°
2026-05-05 15:11 54.08746 -36.98590 36066 ft 499 kts 264°
2026-05-05 15:12 54.08546 -37.10379 36071 ft 497 kts 263°
2026-05-05 15:12 54.08335 -37.22114 36094 ft 501 kts 263°
2026-05-05 15:13 54.08112 -37.33940 36078 ft 501 kts 263°
2026-05-05 15:13 54.07877 -37.45724 36070 ft 500 kts 264°
2026-05-05 15:14 54.07630 -37.57555 36069 ft 499 kts 264°
2026-05-05 15:14 54.07373 -37.69326 36071 ft 500 kts 263°
2026-05-05 15:15 54.07104 -37.81119 36058 ft 500 kts 263°
2026-05-05 15:15 54.06821 -37.92960 36075 ft 503 kts 263°
2026-05-05 15:16 54.06528 -38.04795 36064 ft 499 kts 263°
2026-05-05 15:16 54.06227 -38.16465 36052 ft 501 kts 263°
2026-05-05 15:17 54.05910 -38.28309 36058 ft 499 kts 263°
2026-05-05 15:17 54.05585 -38.40031 36061 ft 500 kts 263°
2026-05-05 15:18 54.05245 -38.51879 36069 ft 498 kts 263°
2026-05-05 15:18 54.04897 -38.63595 36055 ft 497 kts 263°
2026-05-05 15:19 54.04538 -38.75292 36166 ft 497 kts 262°
2026-05-05 15:19 54.04173 -38.86827 36074 ft 495 kts 262°
2026-05-05 15:20 54.03793 -38.98445 36082 ft 495 kts 262°
2026-05-05 15:20 54.03405 -39.10026 36068 ft 494 kts 262°
2026-05-05 15:21 54.03002 -39.21648 36050 ft 495 kts 262°
2026-05-05 15:21 54.02613 -39.32612 36059 ft 493 kts 262°
2026-05-05 15:22 54.02190 -39.44228 36049 ft 493 kts 263°
2026-05-05 15:22 54.01754 -39.55864 36055 ft 494 kts 263°
2026-05-05 15:23 54.01309 -39.67475 36057 ft 492 kts 262°
2026-05-05 15:23 54.00873 -39.78548 36066 ft 493 kts 262°
2026-05-05 15:24 54.00420 -39.89806 36054 ft 492 kts 262°
2026-05-05 15:24 53.99583 -40.01073 36073 ft 487 kts 253°
2026-05-05 15:25 53.98114 -40.11575 36049 ft 487 kts 252°
2026-05-05 15:25 53.96495 -40.22663 36068 ft 486 kts 252°
2026-05-05 15:26 53.94866 -40.33538 36059 ft 486 kts 252°
2026-05-05 15:26 53.93204 -40.44458 36060 ft 486 kts 252°
2026-05-05 15:27 53.91525 -40.55357 36060 ft 484 kts 252°
2026-05-05 15:27 53.89837 -40.66215 36058 ft 484 kts 251°
2026-05-05 15:28 53.88148 -40.76988 36065 ft 483 kts 251°
2026-05-05 15:28 53.86447 -40.87757 36061 ft 482 kts 251°
2026-05-05 15:29 53.84751 -40.98426 36063 ft 481 kts 251°
2026-05-05 15:29 53.83042 -41.09101 36058 ft 481 kts 251°
2026-05-05 15:30 53.81316 -41.19816 36046 ft 481 kts 251°
2026-05-05 15:30 53.79579 -41.30533 36043 ft 482 kts 251°
2026-05-05 15:31 53.77820 -41.41312 36054 ft 482 kts 251°
2026-05-05 15:31 53.76071 -41.51963 36043 ft 480 kts 251°
2026-05-05 15:32 53.74312 -41.62608 36043 ft 483 kts 251°
2026-05-05 15:32 53.72564 -41.73130 36034 ft 480 kts 250°
2026-05-05 15:33 53.70791 -41.83728 36034 ft 482 kts 250°
2026-05-05 15:33 53.69051 -41.94070 36027 ft 481 kts 250°
2026-05-05 15:34 53.67244 -42.04744 36030 ft 481 kts 250°
2026-05-05 15:34 53.65414 -42.15483 36018 ft 481 kts 250°
2026-05-05 15:35 53.63564 -42.26284 36023 ft 481 kts 250°
2026-05-05 15:35 53.61717 -42.36993 36010 ft 481 kts 250°
2026-05-05 15:36 53.59870 -42.47641 36012 ft 480 kts 250°
2026-05-05 15:36 53.58001 -42.58350 36001 ft 481 kts 250°
2026-05-05 15:37 53.56129 -42.69019 36009 ft 480 kts 250°
2026-05-05 15:37 53.54252 -42.79646 35999 ft 479 kts 250°
2026-05-05 15:38 53.52359 -42.90300 35999 ft 479 kts 249°
2026-05-05 15:38 53.50463 -43.00911 35997 ft 479 kts 250°
2026-05-05 15:39 53.48552 -43.11548 35992 ft 479 kts 250°
2026-05-05 15:39 53.46634 -43.22156 35984 ft 480 kts 250°
2026-05-05 15:40 53.44712 -43.32725 35978 ft 479 kts 250°
2026-05-05 15:40 53.42775 -43.43315 35982 ft 478 kts 250°
2026-05-05 15:41 53.40825 -43.53919 35975 ft 479 kts 250°
2026-05-05 15:41 53.38897 -43.64344 35978 ft 478 kts 250°
2026-05-05 15:42 53.36946 -43.74826 35968 ft 478 kts 249°
2026-05-05 15:42 53.34975 -43.85363 35963 ft 478 kts 249°
2026-05-05 15:43 53.33002 -43.95851 35959 ft 478 kts 249°
2026-05-05 15:43 53.31038 -44.06238 35952 ft 478 kts 249°
2026-05-05 15:44 53.29083 -44.16513 35953 ft 477 kts 249°
2026-05-05 15:44 53.27123 -44.26763 35951 ft 477 kts 249°
2026-05-05 15:45 53.25162 -44.36962 35953 ft 477 kts 249°
2026-05-05 15:45 53.23185 -44.47187 35947 ft 478 kts 249°
2026-05-05 15:46 53.21216 -44.57320 35937 ft 477 kts 249°
2026-05-05 15:46 53.19199 -44.67646 35929 ft 478 kts 248°
2026-05-05 15:47 53.17242 -44.77607 35935 ft 476 kts 249°
2026-05-05 15:47 53.15337 -44.87258 35926 ft 476 kts 249°
2026-05-05 15:48 53.13328 -44.97384 35923 ft 476 kts 249°
2026-05-05 15:48 53.11313 -45.07486 35908 ft 476 kts 249°
2026-05-05 15:49 53.09283 -45.17613 35909 ft 476 kts 249°
2026-05-05 15:49 53.07239 -45.27757 35909 ft 476 kts 249°
2026-05-05 15:50 53.05221 -45.37720 35901 ft 476 kts 249°
2026-05-05 15:50 53.03110 -45.48087 35901 ft 476 kts 249°
2026-05-05 15:51 53.00991 -45.58439 35895 ft 476 kts 249°
2026-05-05 15:51 52.98860 -45.68801 35900 ft 475 kts 248°
2026-05-05 15:52 52.96721 -45.79143 35891 ft 474 kts 248°
2026-05-05 15:52 52.94585 -45.89419 35887 ft 474 kts 248°
2026-05-05 15:53 52.92443 -45.99668 35886 ft 473 kts 248°
2026-05-05 15:53 52.90301 -46.09869 35890 ft 473 kts 248°
2026-05-05 15:54 52.88139 -46.20110 35887 ft 474 kts 248°
2026-05-05 15:54 52.85963 -46.30367 35873 ft 474 kts 248°
2026-05-05 15:55 52.83798 -46.40521 35871 ft 473 kts 248°
2026-05-05 15:55 52.81617 -46.50697 35867 ft 473 kts 249°
2026-05-05 15:56 52.79486 -46.60594 35859 ft 474 kts 249°
2026-05-05 15:56 52.77338 -46.70522 35862 ft 472 kts 248°
2026-05-05 15:57 52.75216 -46.80280 35856 ft 473 kts 248°
2026-05-05 15:57 52.73098 -46.89974 35845 ft 474 kts 248°
2026-05-05 15:58 52.70953 -46.99748 35844 ft 473 kts 248°
2026-05-05 15:58 52.68799 -47.09513 35842 ft 472 kts 248°
2026-05-05 15:59 52.66631 -47.19299 35843 ft 473 kts 248°
2026-05-05 15:59 52.64479 -47.28968 35832 ft 472 kts 248°
2026-05-05 16:00 52.62306 -47.38681 35828 ft 472 kts 248°
2026-05-05 16:00 52.60138 -47.48329 35830 ft 471 kts 248°
2026-05-05 16:01 52.57944 -47.58051 35819 ft 471 kts 248°
2026-05-05 16:01 52.55739 -47.67773 35820 ft 470 kts 247°
2026-05-05 16:02 52.53538 -47.77435 35817 ft 470 kts 247°
2026-05-05 16:02 52.51329 -47.87085 35814 ft 470 kts 247°
2026-05-05 16:03 52.49135 -47.96631 35811 ft 468 kts 247°
2026-05-05 16:03 52.46942 -48.06128 35810 ft 469 kts 247°
2026-05-05 16:04 52.44772 -48.15484 35799 ft 468 kts 247°
2026-05-05 16:04 52.42532 -48.25095 35798 ft 468 kts 247°
2026-05-05 16:05 52.40296 -48.34650 35791 ft 468 kts 247°
2026-05-05 16:05 52.38016 -48.44347 35791 ft 468 kts 248°
2026-05-05 16:06 52.35744 -48.53968 35778 ft 470 kts 248°
2026-05-05 16:06 52.33445 -48.63663 35779 ft 468 kts 248°
2026-05-05 16:07 52.31160 -48.73252 35780 ft 468 kts 246°
2026-05-05 16:07 52.28858 -48.82869 35777 ft 468 kts 247°
2026-05-05 16:08 52.26550 -48.92473 35772 ft 468 kts 247°
2026-05-05 16:08 52.24220 -49.02120 35770 ft 468 kts 247°
2026-05-05 16:09 52.21891 -49.11726 35763 ft 469 kts 247°
2026-05-05 16:09 52.19558 -49.21301 35767 ft 467 kts 247°
2026-05-05 16:10 52.17191 -49.30976 35760 ft 467 kts 247°
2026-05-05 16:10 52.14838 -49.40552 35752 ft 468 kts 247°
2026-05-05 16:11 52.12478 -49.50116 35746 ft 468 kts 247°
2026-05-05 16:12 52.07738 -49.69197 35740 ft 467 kts 246°
2026-05-05 16:13 52.01714 -49.93213 35728 ft 468 kts 246°
2026-05-05 16:13 51.99346 -50.02762 35725 ft 467 kts 248°
2026-05-05 16:14 51.94682 -50.22098 35729 ft 467 kts 248°
2026-05-05 16:15 51.90016 -50.41299 35719 ft 467 kts 248°
2026-05-05 16:16 51.85293 -50.60562 35717 ft 467 kts 248°
2026-05-05 16:17 51.81731 -50.74983 35715 ft 468 kts 247°
2026-05-05 16:18 51.78213 -50.89133 35707 ft 468 kts 248°
2026-05-05 16:19 51.74640 -51.03414 35700 ft 468 kts 248°
2026-05-05 16:19 51.71083 -51.17539 35706 ft 467 kts 248°
2026-05-05 16:20 51.66184 -51.36848 35706 ft 465 kts 248°
2026-05-05 16:22 51.60207 -51.60185 35706 ft 466 kts 248°
2026-05-05 16:23 51.55374 -51.78879 35681 ft 466 kts 247°
2026-05-05 16:23 51.51749 -51.92803 35666 ft 465 kts 247°
2026-05-05 16:24 51.49314 -52.02105 35663 ft 466 kts 247°
2026-05-05 16:25 51.45588 -52.16269 35671 ft 464 kts 247°
2026-05-05 16:25 51.42005 -52.29803 35675 ft 465 kts 248°
2026-05-05 16:26 51.37103 -52.48199 35665 ft 465 kts 248°
2026-05-05 16:27 51.34639 -52.57388 35675 ft 465 kts 248°
2026-05-05 16:27 51.32166 -52.66572 35676 ft 464 kts 247°
2026-05-05 16:28 51.29770 -52.75438 35679 ft 464 kts 247°
2026-05-05 16:28 51.27329 -52.84435 35674 ft 463 kts 247°
2026-05-05 16:29 51.24863 -52.93489 35673 ft 464 kts 247°
2026-05-05 16:29 51.22423 -53.02414 35668 ft 461 kts 247°
2026-05-05 16:30 51.20014 -53.11192 35671 ft 462 kts 247°
2026-05-05 16:30 51.17564 -53.20082 35656 ft 462 kts 247°
2026-05-05 16:31 51.15036 -53.28916 35668 ft 460 kts 245°
2026-05-05 16:31 51.12411 -53.37588 35667 ft 460 kts 245°
2026-05-05 16:32 51.09771 -53.46299 35663 ft 461 kts 245°
2026-05-05 16:32 51.07106 -53.55079 35666 ft 459 kts 246°
2026-05-05 16:33 51.04486 -53.63690 35667 ft 460 kts 246°
2026-05-05 16:33 51.01844 -53.72347 35667 ft 459 kts 245°
2026-05-05 16:34 50.99218 -53.80923 35680 ft 459 kts 245°
2026-05-05 16:34 50.96572 -53.89534 35675 ft 458 kts 245°
2026-05-05 16:35 50.93924 -53.98124 35662 ft 458 kts 245°
2026-05-05 16:35 50.91282 -54.06665 35671 ft 459 kts 245°
2026-05-05 16:36 50.88643 -54.15169 35681 ft 459 kts 245°
2026-05-05 16:36 50.85983 -54.23708 35668 ft 459 kts 245°
2026-05-05 16:37 50.83418 -54.31914 35666 ft 458 kts 245°
2026-05-05 16:37 50.80746 -54.40434 35678 ft 457 kts 245°
2026-05-05 16:38 50.78094 -54.48861 35679 ft 459 kts 246°
2026-05-05 16:38 50.75354 -54.57539 35691 ft 458 kts 246°
2026-05-05 16:39 50.72647 -54.66080 35677 ft 458 kts 245°
2026-05-05 16:39 50.69979 -54.74472 35701 ft 457 kts 245°
2026-05-05 16:40 50.67339 -54.82744 35693 ft 458 kts 245°
2026-05-05 16:40 50.64728 -54.90900 35668 ft 457 kts 245°
2026-05-05 16:41 50.61866 -54.99811 35675 ft 458 kts 245°
2026-05-05 16:41 50.59084 -55.08441 35691 ft 456 kts 245°
2026-05-05 16:42 50.56288 -55.17085 35687 ft 457 kts 245°
2026-05-05 16:42 50.53500 -55.25675 35669 ft 456 kts 245°
2026-05-05 16:43 50.50711 -55.34238 35677 ft 455 kts 245°
2026-05-05 16:43 50.47914 -55.42794 35667 ft 455 kts 245°
2026-05-05 16:44 50.45095 -55.51389 35693 ft 453 kts 245°
2026-05-05 16:44 50.42292 -55.59907 35702 ft 454 kts 245°
2026-05-05 16:45 50.39474 -55.68441 35690 ft 453 kts 245°
2026-05-05 16:45 50.36761 -55.76630 35695 ft 451 kts 245°
2026-05-05 16:46 50.33966 -55.85038 35688 ft 451 kts 245°
2026-05-05 16:46 50.31177 -55.93402 35685 ft 453 kts 245°
2026-05-05 16:47 50.28380 -56.01759 35728 ft 449 kts 245°
2026-05-05 16:47 50.25566 -56.10143 35714 ft 450 kts 245°
2026-05-05 16:48 50.22753 -56.18493 35719 ft 449 kts 245°
2026-05-05 16:48 50.19922 -56.26870 35702 ft 450 kts 245°
2026-05-05 16:49 50.17083 -56.35241 35688 ft 449 kts 246°
2026-05-05 16:49 50.14213 -56.43677 35718 ft 450 kts 246°
2026-05-05 16:50 50.11414 -56.51878 35701 ft 448 kts 245°
2026-05-05 16:50 50.08483 -56.60437 35730 ft 448 kts 246°
2026-05-05 16:51 50.05539 -56.69004 35694 ft 450 kts 245°
2026-05-05 16:51 50.02662 -56.77349 35722 ft 449 kts 245°
2026-05-05 16:52 49.99746 -56.85779 35706 ft 449 kts 245°
2026-05-05 16:52 49.96805 -56.94255 35712 ft 451 kts 245°
2026-05-05 16:53 49.93847 -57.02747 35684 ft 446 kts 245°
2026-05-05 16:53 49.90882 -57.11236 35683 ft 450 kts 246°
2026-05-05 16:54 49.87917 -57.19694 35655 ft 448 kts 246°
2026-05-05 16:54 49.84960 -57.28103 35659 ft 450 kts 246°
2026-05-05 16:55 49.82129 -57.36126 35682 ft 448 kts 246°
2026-05-05 16:55 49.79159 -57.44519 35707 ft 450 kts 246°
2026-05-05 16:56 49.76202 -57.52844 35707 ft 447 kts 246°
2026-05-05 16:56 49.73220 -57.61216 35714 ft 449 kts 246°
2026-05-05 16:57 49.70290 -57.69414 35717 ft 449 kts 245°
2026-05-05 16:57 49.67316 -57.77709 35731 ft 448 kts 245°
2026-05-05 16:58 49.64366 -57.85910 35749 ft 448 kts 245°
2026-05-05 16:58 49.61419 -57.94076 35779 ft 447 kts 245°
2026-05-05 16:59 49.58466 -58.02236 35775 ft 447 kts 245°
2026-05-05 16:59 49.55535 -58.10308 35785 ft 447 kts 245°
2026-05-05 17:00 49.52615 -58.18324 35813 ft 446 kts 245°
2026-05-05 17:00 49.49649 -58.26441 35796 ft 444 kts 245°
2026-05-05 17:01 49.46654 -58.34615 35802 ft 447 kts 245°
2026-05-05 17:01 49.43658 -58.42760 35823 ft 444 kts 246°
2026-05-05 17:02 49.40650 -58.50917 35806 ft 444 kts 246°
2026-05-05 17:02 49.37610 -58.59134 35806 ft 445 kts 246°
2026-05-05 17:03 49.34564 -58.67341 35805 ft 445 kts 245°
2026-05-05 17:03 49.31509 -58.75545 35837 ft 443 kts 245°
2026-05-05 17:04 49.28520 -58.83550 35829 ft 445 kts 245°
2026-05-05 17:04 49.25469 -58.91693 35840 ft 442 kts 246°
2026-05-05 17:05 49.22466 -58.99685 35817 ft 444 kts 246°
2026-05-05 17:05 49.19414 -59.07780 35838 ft 441 kts 246°
2026-05-05 17:06 49.16357 -59.15866 35847 ft 441 kts 246°
2026-05-05 17:06 49.13294 -59.23944 35841 ft 442 kts 246°
2026-05-05 17:07 49.10401 -59.31548 35846 ft 442 kts 246°
2026-05-05 17:07 49.07341 -59.39569 35848 ft 440 kts 246°
2026-05-05 17:08 49.05804 -59.43586 35576 ft 439 kts 246°
2026-05-05 17:08 49.04264 -59.47609 35878 ft 442 kts 246°
2026-05-05 17:08 49.02740 -59.51583 35635 ft 441 kts 246°
2026-05-05 17:08 49.01286 -59.55367 35778 ft 441 kts 246°
2026-05-05 17:09 48.98336 -59.63032 35837 ft 446 kts 246°
2026-05-05 17:09 48.95288 -59.70923 35854 ft 443 kts 245°
2026-05-05 17:10 48.92313 -59.78604 35858 ft 441 kts 245°
2026-05-05 17:10 48.89373 -59.86175 35853 ft 443 kts 245°
2026-05-05 17:11 48.86407 -59.93787 35852 ft 440 kts 245°
2026-05-05 17:11 48.83468 -60.01313 35853 ft 441 kts 245°
2026-05-05 17:12 48.80705 -60.08368 35831 ft 440 kts 245°
2026-05-05 17:12 48.77625 -60.16208 35853 ft 437 kts 245°
2026-05-05 17:13 48.75616 -60.21312 35843 ft 439 kts 245°